Time,TemperatureF,DewpointF,PressureIn,WindDirection,WindDirectionDegrees,WindSpeedMPH,WindSpeedGustMPH,Humidity,HourlyPrecipIn,Conditions,Clouds,dailyrainin,SoftwareType,DateUTC
2013-10-18 00:01:00,45.0,43.9,29.98,SE,132,0.0,1.0,96,0.00,,,0.00,Wunderground v.1.15,2013-10-18 05:01:00,
2013-10-18 00:07:00,44.9,43.8,29.97,ESE,104,0.0,1.0,96,0.00,,,0.00,Wunderground v.1.15,2013-10-18 05:07:00,
2013-10-18 00:12:00,44.6,43.5,29.97,ESE,104,0.0,0.0,96,0.00,,,0.00,Wunderground v.1.15,2013-10-18 05:12:00,
2013-10-18 00:17:00,44.6,43.5,29.97,ESE,104,0.0,0.0,96,0.00,,,0.00,Wunderground v.1.15,2013-10-18 05:17:00,
2013-10-18 00:23:00,44.6,43.5,29.97,SE,130,0.0,0.0,96,0.00,,,0.00,Wunderground v.1.15,2013-10-18 05:23:00,
2013-10-18 00:28:00,44.7,43.9,29.97,SE,130,0.0,1.0,97,0.00,,,0.00,Wunderground v.1.15,2013-10-18 05:28:00,
2013-10-18 00:33:00,44.6,43.8,29.97,SE,131,0.0,0.0,97,0.00,,,0.00,Wunderground v.1.15,2013-10-18 05:33:00,
2013-10-18 00:38:00,44.7,43.9,29.97,SE,142,0.0,0.0,97,0.00,,,0.00,Wunderground v.1.15,2013-10-18 05:38:00,
2013-10-18 00:43:00,44.7,43.9,29.97,ESE,108,0.0,0.0,97,0.00,,,0.00,Wunderground v.1.15,2013-10-18 05:43:00,
2013-10-18 00:49:00,44.5,43.7,29.98,SE,125,0.0,1.0,97,0.00,,,0.00,Wunderground v.1.15,2013-10-18 05:49:00,
2013-10-18 00:55:00,44.6,43.8,29.98,SE,125,0.0,2.0,97,0.00,,,0.00,Wunderground v.1.15,2013-10-18 05:55:00,
2013-10-18 01:00:00,44.4,43.6,29.97,ESE,121,0.0,0.0,97,0.00,,,0.00,Wunderground v.1.15,2013-10-18 06:00:00,
2013-10-18 01:06:00,44.3,43.5,29.97,SSE,148,0.0,2.0,97,0.00,,,0.00,Wunderground v.1.15,2013-10-18 06:06:00,
2013-10-18 01:11:00,44.4,43.6,29.98,ESE,105,0.0,0.0,97,0.00,,,0.00,Wunderground v.1.15,2013-10-18 06:11:00,
2013-10-18 01:16:00,44.5,43.7,29.98,ESE,106,0.0,0.0,97,0.00,,,0.00,Wunderground v.1.15,2013-10-18 06:16:00,
2013-10-18 01:22:00,44.5,43.7,29.98,SSE,148,0.0,0.0,97,0.00,,,0.00,Wunderground v.1.15,2013-10-18 06:22:00,
2013-10-18 01:27:00,44.4,43.6,29.98,SSE,149,0.0,0.0,97,0.00,,,0.00,Wunderground v.1.15,2013-10-18 06:27:00,
2013-10-18 01:32:00,44.2,43.4,29.98,SSE,149,0.0,0.0,97,0.00,,,0.00,Wunderground v.1.15,2013-10-18 06:32:00,
2013-10-18 01:37:00,44.1,43.3,29.98,SE,143,0.0,0.0,97,0.00,,,0.00,Wunderground v.1.15,2013-10-18 06:37:00,
2013-10-18 01:42:00,44.1,43.3,29.98,SE,124,0.0,0.0,97,0.00,,,0.00,Wunderground v.1.15,2013-10-18 06:42:00,
2013-10-18 01:47:00,44.3,43.5,29.98,SE,125,0.0,0.0,97,0.00,,,0.00,Wunderground v.1.15,2013-10-18 06:47:00,
2013-10-18 01:52:00,44.3,43.5,29.98,ESE,120,0.0,1.0,97,0.00,,,0.00,Wunderground v.1.15,2013-10-18 06:52:00,
2013-10-18 01:57:00,44.3,43.5,29.98,ESE,111,0.0,1.0,97,0.00,,,0.00,Wunderground v.1.15,2013-10-18 06:57:00,
2013-10-18 02:03:00,44.4,43.6,29.98,SSE,165,0.0,0.0,97,0.00,,,0.00,Wunderground v.1.15,2013-10-18 07:03:00,
2013-10-18 02:08:00,44.9,44.1,29.98,SSW,193,0.0,1.0,97,0.00,,,0.00,Wunderground v.1.15,2013-10-18 07:08:00,
2013-10-18 02:13:00,44.8,44.0,29.98,ESE,107,0.0,1.0,97,0.00,,,0.00,Wunderground v.1.15,2013-10-18 07:13:00,
2013-10-18 02:18:00,44.8,44.0,29.98,East,101,0.0,1.0,97,0.00,,,0.00,Wunderground v.1.15,2013-10-18 07:18:00,
2013-10-18 02:23:00,44.8,44.0,29.98,ESE,108,0.0,1.0,97,0.00,,,0.00,Wunderground v.1.15,2013-10-18 07:23:00,
2013-10-18 02:28:00,44.6,43.8,29.98,ESE,109,0.0,1.0,97,0.00,,,0.00,Wunderground v.1.15,2013-10-18 07:28:00,
2013-10-18 02:33:00,44.5,43.7,29.98,SE,136,0.0,0.0,97,0.00,,,0.00,Wunderground v.1.15,2013-10-18 07:33:00,
2013-10-18 02:38:00,44.3,43.5,29.98,SE,134,0.0,0.0,97,0.00,,,0.00,Wunderground v.1.15,2013-10-18 07:38:00,
2013-10-18 02:44:00,44.3,43.5,29.98,SE,141,0.0,0.0,97,0.00,,,0.00,Wunderground v.1.15,2013-10-18 07:44:00,
2013-10-18 02:49:00,44.2,43.4,29.98,SE,125,0.0,0.0,97,0.00,,,0.00,Wunderground v.1.15,2013-10-18 07:49:00,
2013-10-18 02:54:00,44.3,43.5,29.97,ESE,110,0.0,1.0,97,0.00,,,0.00,Wunderground v.1.15,2013-10-18 07:54:00,
2013-10-18 03:00:00,43.9,43.1,29.98,ESE,111,0.0,0.0,97,0.00,,,0.00,Wunderground v.1.15,2013-10-18 08:00:00,
2013-10-18 03:06:00,43.9,43.1,29.97,ESE,119,0.0,0.0,97,0.00,,,0.00,Wunderground v.1.15,2013-10-18 08:06:00,
2013-10-18 03:11:00,44.0,43.2,29.97,ESE,119,0.0,0.0,97,0.00,,,0.00,Wunderground v.1.15,2013-10-18 08:11:00,
2013-10-18 03:16:00,43.9,43.1,29.97,ESE,119,0.0,0.0,97,0.00,,,0.00,Wunderground v.1.15,2013-10-18 08:16:00,
2013-10-18 03:21:00,43.8,43.0,29.97,ESE,118,0.0,0.0,97,0.00,,,0.00,Wunderground v.1.15,2013-10-18 08:21:00,
2013-10-18 03:26:00,43.7,42.9,29.98,ESE,119,0.0,0.0,97,0.00,,,0.00,Wunderground v.1.15,2013-10-18 08:26:00,
2013-10-18 03:31:00,43.6,42.8,29.98,ESE,119,0.0,0.0,97,0.00,,,0.00,Wunderground v.1.15,2013-10-18 08:31:00,
2013-10-18 03:36:00,43.5,42.7,29.98,SE,145,0.0,0.0,97,0.00,,,0.00,Wunderground v.1.15,2013-10-18 08:36:00,
2013-10-18 03:42:00,43.3,42.5,29.98,SE,145,0.0,0.0,97,0.00,,,0.00,Wunderground v.1.15,2013-10-18 08:42:00,
2013-10-18 03:47:00,43.4,42.6,29.98,SE,145,0.0,0.0,97,0.00,,,0.00,Wunderground v.1.15,2013-10-18 08:47:00,
2013-10-18 03:53:00,43.3,42.5,29.98,SE,145,0.0,0.0,97,0.00,,,0.00,Wunderground v.1.15,2013-10-18 08:53:00,
2013-10-18 03:58:00,43.4,42.6,29.98,SE,146,0.0,0.0,97,0.00,,,0.00,Wunderground v.1.15,2013-10-18 08:58:00,
2013-10-18 04:03:00,43.5,42.7,29.98,SE,145,0.0,0.0,97,0.00,,,0.00,Wunderground v.1.15,2013-10-18 09:03:00,
2013-10-18 04:08:00,43.5,42.7,29.98,SE,146,0.0,0.0,97,0.00,,,0.00,Wunderground v.1.15,2013-10-18 09:08:00,
2013-10-18 04:13:00,43.4,42.6,29.98,SE,145,0.0,0.0,97,0.00,,,0.00,Wunderground v.1.15,2013-10-18 09:13:00,
2013-10-18 04:18:00,43.4,42.6,29.98,SSE,148,0.0,0.0,97,0.00,,,0.00,Wunderground v.1.15,2013-10-18 09:18:00,
2013-10-18 04:24:00,43.6,42.8,29.98,ESE,114,0.0,0.0,97,0.00,,,0.00,Wunderground v.1.15,2013-10-18 09:24:00,
2013-10-18 04:29:00,43.5,42.7,29.98,SSE,150,0.0,0.0,97,0.00,,,0.00,Wunderground v.1.15,2013-10-18 09:29:00,
2013-10-18 04:34:00,43.5,42.7,29.98,SE,139,0.0,0.0,97,0.00,,,0.00,Wunderground v.1.15,2013-10-18 09:34:00,
2013-10-18 04:40:00,43.5,42.7,29.98,SE,138,0.0,0.0,97,0.00,,,0.00,Wunderground v.1.15,2013-10-18 09:40:00,
2013-10-18 04:45:00,43.6,42.8,29.98,ESE,121,0.0,0.0,97,0.00,,,0.00,Wunderground v.1.15,2013-10-18 09:45:00,
2013-10-18 04:50:00,43.7,42.9,29.98,ESE,122,0.0,0.0,97,0.00,,,0.00,Wunderground v.1.15,2013-10-18 09:50:00,
2013-10-18 04:55:00,43.6,42.8,29.98,South,172,0.0,1.0,97,0.00,,,0.00,Wunderground v.1.15,2013-10-18 09:55:00,
2013-10-18 05:00:00,43.8,43.0,29.98,SSE,160,0.0,0.0,97,0.00,,,0.00,Wunderground v.1.15,2013-10-18 10:00:00,
2013-10-18 05:06:00,43.7,42.9,29.98,SSE,161,0.0,0.0,97,0.00,,,0.00,Wunderground v.1.15,2013-10-18 10:06:00,
2013-10-18 05:11:00,43.7,42.9,29.98,ESE,114,0.0,1.0,97,0.00,,,0.00,Wunderground v.1.15,2013-10-18 10:11:00,
2013-10-18 05:16:00,43.8,43.0,29.98,ESE,114,0.0,1.0,97,0.00,,,0.00,Wunderground v.1.15,2013-10-18 10:16:00,
2013-10-18 05:21:00,43.8,43.0,29.98,SSE,158,0.0,0.0,97,0.00,,,0.00,Wunderground v.1.15,2013-10-18 10:21:00,
2013-10-18 05:26:00,43.7,42.9,29.98,SSE,156,0.0,0.0,97,0.00,,,0.00,Wunderground v.1.15,2013-10-18 10:26:00,
2013-10-18 05:31:00,43.6,42.8,29.98,SSE,156,0.0,0.0,97,0.00,,,0.00,Wunderground v.1.15,2013-10-18 10:31:00,
2013-10-18 05:36:00,43.6,42.8,29.98,SE,134,0.0,0.0,97,0.00,,,0.00,Wunderground v.1.15,2013-10-18 10:36:00,
2013-10-18 05:41:00,43.5,42.7,29.98,ESE,121,0.0,0.0,97,0.00,,,0.00,Wunderground v.1.15,2013-10-18 10:41:00,
2013-10-18 05:46:00,43.6,42.8,29.99,SSW,210,0.0,0.0,97,0.00,,,0.00,Wunderground v.1.15,2013-10-18 10:46:00,
2013-10-18 05:51:00,43.6,42.8,29.99,SE,136,0.0,0.0,97,0.00,,,0.00,Wunderground v.1.15,2013-10-18 10:51:00,
2013-10-18 05:56:00,43.6,42.8,29.99,SE,136,0.0,0.0,97,0.00,,,0.00,Wunderground v.1.15,2013-10-18 10:56:00,
2013-10-18 06:02:00,43.6,42.8,29.99,SE,139,0.0,0.0,97,0.00,,,0.01,Wunderground v.1.15,2013-10-18 11:02:00,
2013-10-18 06:07:00,43.7,42.9,29.99,SE,139,0.0,0.0,97,0.00,,,0.01,Wunderground v.1.15,2013-10-18 11:07:00,
2013-10-18 06:12:00,43.6,42.8,30.00,SW,224,0.0,0.0,97,0.00,,,0.01,Wunderground v.1.15,2013-10-18 11:12:00,
2013-10-18 06:17:00,43.6,42.8,30.00,SW,224,0.0,0.0,97,0.00,,,0.01,Wunderground v.1.15,2013-10-18 11:17:00,
2013-10-18 06:22:00,43.7,42.9,29.99,SSE,160,0.0,0.0,97,0.00,,,0.01,Wunderground v.1.15,2013-10-18 11:22:00,
2013-10-18 06:27:00,43.7,42.9,30.00,ESE,113,0.0,0.0,97,0.00,,,0.01,Wunderground v.1.15,2013-10-18 11:27:00,
2013-10-18 06:32:00,43.7,42.9,30.00,ESE,111,0.0,0.0,97,0.00,,,0.01,Wunderground v.1.15,2013-10-18 11:32:00,
2013-10-18 06:37:00,43.7,42.9,30.00,East,98,0.0,0.0,97,0.00,,,0.01,Wunderground v.1.15,2013-10-18 11:37:00,
2013-10-18 06:43:00,43.6,42.8,30.00,SSE,158,0.0,0.0,97,0.00,,,0.01,Wunderground v.1.15,2013-10-18 11:43:00,
2013-10-18 06:49:00,43.5,42.7,30.00,SSE,157,0.0,0.0,97,0.00,,,0.01,Wunderground v.1.15,2013-10-18 11:49:00,
2013-10-18 06:54:00,43.5,42.7,30.00,SE,129,0.0,0.0,97,0.00,,,0.01,Wunderground v.1.15,2013-10-18 11:54:00,
2013-10-18 06:59:00,43.7,43.2,30.00,East,94,0.0,1.0,98,0.00,,,0.01,Wunderground v.1.15,2013-10-18 11:59:00,
2013-10-18 07:04:00,43.6,43.1,30.00,East,94,0.0,0.0,98,0.00,,,0.01,Wunderground v.1.15,2013-10-18 12:04:00,
2013-10-18 07:09:00,43.7,42.9,30.00,SE,136,0.0,1.0,97,0.00,,,0.01,Wunderground v.1.15,2013-10-18 12:09:00,
2013-10-18 07:14:00,44.0,43.5,30.00,SW,226,0.0,0.0,98,0.00,,,0.01,Wunderground v.1.15,2013-10-18 12:14:00,
2013-10-18 07:20:00,43.9,43.4,30.00,SW,216,0.0,0.0,98,0.00,,,0.01,Wunderground v.1.15,2013-10-18 12:20:00,
2013-10-18 07:25:00,43.8,43.3,30.00,SW,216,0.0,0.0,98,0.00,,,0.01,Wunderground v.1.15,2013-10-18 12:25:00,
2013-10-18 07:31:00,43.8,43.3,30.01,SW,216,0.0,0.0,98,0.00,,,0.01,Wunderground v.1.15,2013-10-18 12:31:00,
2013-10-18 07:36:00,43.8,43.3,30.00,SE,131,0.0,0.0,98,0.00,,,0.01,Wunderground v.1.15,2013-10-18 12:36:00,
2013-10-18 07:41:00,43.9,43.4,30.01,SE,131,0.0,0.0,98,0.00,,,0.01,Wunderground v.1.15,2013-10-18 12:41:00,
2013-10-18 07:47:00,43.9,43.4,30.00,SE,131,0.0,0.0,98,0.00,,,0.01,Wunderground v.1.15,2013-10-18 12:47:00,
2013-10-18 07:52:00,44.1,43.6,30.01,SE,131,0.0,0.0,98,0.00,,,0.01,Wunderground v.1.15,2013-10-18 12:52:00,
2013-10-18 07:57:00,44.3,43.8,30.01,SE,131,0.0,0.0,98,0.00,,,0.01,Wunderground v.1.15,2013-10-18 12:57:00,
2013-10-18 08:03:00,45.3,44.8,30.01,SSE,152,0.0,0.0,98,0.00,,,0.01,Wunderground v.1.15,2013-10-18 13:03:00,
2013-10-18 08:08:00,46.1,45.6,30.02,SW,226,0.0,0.0,98,0.00,,,0.01,Wunderground v.1.15,2013-10-18 13:08:00,
2013-10-18 08:13:00,46.9,46.4,30.02,ESE,120,0.0,1.0,98,0.00,,,0.01,Wunderground v.1.15,2013-10-18 13:13:00,
2013-10-18 08:18:00,47.5,47.0,30.02,SSE,167,1.0,3.0,98,0.00,,,0.01,Wunderground v.1.15,2013-10-18 13:18:00,
2013-10-18 08:23:00,47.8,47.3,30.02,SW,218,1.0,2.0,98,0.00,,,0.01,Wunderground v.1.15,2013-10-18 13:23:00,
2013-10-18 08:28:00,48.3,47.8,30.02,West,280,1.0,2.0,98,0.00,,,0.01,Wunderground v.1.15,2013-10-18 13:28:00,
2013-10-18 08:33:00,48.7,48.2,30.02,South,190,0.0,1.0,98,0.00,,,0.01,Wunderground v.1.15,2013-10-18 13:33:00,
2013-10-18 08:38:00,49.1,48.6,30.03,SSW,212,0.0,1.0,98,0.00,,,0.01,Wunderground v.1.15,2013-10-18 13:38:00,
2013-10-18 08:43:00,49.5,49.0,30.03,SSW,197,0.0,0.0,98,0.00,,,0.01,Wunderground v.1.15,2013-10-18 13:43:00,
2013-10-18 08:48:00,49.8,49.3,30.02,SE,131,1.0,1.0,98,0.00,,,0.01,Wunderground v.1.15,2013-10-18 13:48:00,
2013-10-18 08:53:00,50.2,49.4,30.02,West,271,1.0,1.0,97,0.00,,,0.01,Wunderground v.1.15,2013-10-18 13:53:00,
2013-10-18 08:58:00,50.3,49.5,30.02,WSW,245,1.0,2.0,97,0.00,,,0.01,Wunderground v.1.15,2013-10-18 13:58:00,
2013-10-18 09:04:00,50.6,49.8,30.03,WSW,255,1.0,2.0,97,0.00,,,0.01,Wunderground v.1.15,2013-10-18 14:04:00,
2013-10-18 09:09:00,50.8,50.0,30.02,WSW,251,1.0,4.0,97,0.00,,,0.01,Wunderground v.1.15,2013-10-18 14:09:00,
2013-10-18 09:14:00,51.3,50.2,30.02,WSW,246,1.0,3.0,96,0.00,,,0.01,Wunderground v.1.15,2013-10-18 14:14:00,
2013-10-18 09:19:00,51.8,50.7,30.02,West,278,1.0,3.0,96,0.00,,,0.01,Wunderground v.1.15,2013-10-18 14:19:00,
2013-10-18 09:24:00,52.4,51.3,30.02,SW,234,0.0,1.0,96,0.00,,,0.01,Wunderground v.1.15,2013-10-18 14:24:00,
2013-10-18 09:29:00,52.9,51.5,30.02,SW,231,0.0,1.0,95,0.00,,,0.01,Wunderground v.1.15,2013-10-18 14:29:00,
2013-10-18 09:35:00,53.4,51.4,30.02,WNW,284,1.0,2.0,93,0.00,,,0.01,Wunderground v.1.15,2013-10-18 14:35:00,
2013-10-18 09:40:00,53.9,51.6,30.03,West,269,2.0,2.0,92,0.00,,,0.01,Wunderground v.1.15,2013-10-18 14:40:00,
2013-10-18 09:45:00,54.1,50.9,30.03,West,274,3.0,6.0,89,0.00,,,0.01,Wunderground v.1.15,2013-10-18 14:45:00,
2013-10-18 09:50:00,54.5,51.0,30.03,WNW,283,4.0,7.0,88,0.00,,,0.01,Wunderground v.1.15,2013-10-18 14:50:00,
2013-10-18 09:56:00,55.1,50.7,30.04,West,263,4.0,7.0,85,0.00,,,0.01,Wunderground v.1.15,2013-10-18 14:56:00,
2013-10-18 10:01:00,55.6,51.2,30.04,WNW,284,3.0,4.0,85,0.00,,,0.01,Wunderground v.1.15,2013-10-18 15:01:00,
2013-10-18 10:07:00,55.8,50.7,30.03,WNW,287,4.0,6.0,83,0.00,,,0.01,Wunderground v.1.15,2013-10-18 15:07:00,
2013-10-18 10:12:00,55.9,50.8,30.03,West,274,4.0,5.0,83,0.00,,,0.01,Wunderground v.1.15,2013-10-18 15:12:00,
2013-10-18 10:17:00,56.2,50.8,30.03,WNW,290,4.0,7.0,82,0.00,,,0.01,Wunderground v.1.15,2013-10-18 15:17:00,
2013-10-18 10:22:00,56.5,51.1,30.03,WNW,295,3.0,4.0,82,0.00,,,0.01,Wunderground v.1.15,2013-10-18 15:22:00,
2013-10-18 10:27:00,57.0,51.2,30.03,WNW,289,2.0,5.0,81,0.00,,,0.01,Wunderground v.1.15,2013-10-18 15:27:00,
2013-10-18 10:32:00,57.2,51.8,30.03,WNW,291,2.0,6.0,82,0.00,,,0.01,Wunderground v.1.15,2013-10-18 15:32:00,
2013-10-18 10:38:00,57.6,51.5,30.03,NW,321,3.0,6.0,80,0.00,,,0.01,Wunderground v.1.15,2013-10-18 15:38:00,
2013-10-18 10:44:00,58.1,51.6,30.02,WSW,250,2.0,5.0,79,0.00,,,0.01,Wunderground v.1.15,2013-10-18 15:44:00,
2013-10-18 10:49:00,58.2,51.4,30.03,West,259,3.0,6.0,78,0.00,,,0.01,Wunderground v.1.15,2013-10-18 15:49:00,
2013-10-18 10:54:00,58.5,51.3,30.02,WNW,283,4.0,4.0,77,0.00,,,0.01,Wunderground v.1.15,2013-10-18 15:54:00,
2013-10-18 10:59:00,58.9,52.1,30.02,West,271,4.0,5.0,78,0.00,,,0.01,Wunderground v.1.15,2013-10-18 15:59:00,
2013-10-18 11:04:00,58.9,51.0,30.02,WSW,252,4.0,6.0,75,0.00,,,0.01,Wunderground v.1.15,2013-10-18 16:04:00,
2013-10-18 11:09:00,59.1,51.5,30.02,West,263,4.0,7.0,76,0.00,,,0.01,Wunderground v.1.15,2013-10-18 16:09:00,
2013-10-18 11:15:00,59.4,51.5,30.02,SW,233,4.0,6.0,75,0.00,,,0.01,Wunderground v.1.15,2013-10-18 16:15:00,
2013-10-18 11:20:00,59.7,51.4,30.02,WNW,291,4.0,4.0,74,0.00,,,0.01,Wunderground v.1.15,2013-10-18 16:20:00,
2013-10-18 11:25:00,60.2,51.9,30.02,WSW,250,4.0,4.0,74,0.00,,,0.01,Wunderground v.1.15,2013-10-18 16:25:00,
2013-10-18 11:30:00,60.7,52.4,30.02,West,263,3.0,7.0,74,0.00,,,0.01,Wunderground v.1.15,2013-10-18 16:30:00,
2013-10-18 11:35:00,60.9,52.6,30.02,WNW,293,3.0,7.0,74,0.00,,,0.01,Wunderground v.1.15,2013-10-18 16:35:00,
2013-10-18 11:40:00,61.2,52.1,30.01,WNW,290,3.0,4.0,72,0.00,,,0.01,Wunderground v.1.15,2013-10-18 16:40:00,
2013-10-18 11:45:00,61.5,52.4,30.01,WSW,242,3.0,4.0,72,0.00,,,0.01,Wunderground v.1.15,2013-10-18 16:45:00,
2013-10-18 11:50:00,61.8,53.1,30.01,WNW,285,2.0,4.0,73,0.00,,,0.01,Wunderground v.1.15,2013-10-18 16:50:00,
2013-10-18 11:55:00,62.0,52.5,30.01,ESE,103,3.0,4.0,71,0.00,,,0.01,Wunderground v.1.15,2013-10-18 16:55:00,
2013-10-18 12:00:00,62.3,53.2,30.01,North,5,3.0,3.0,72,0.00,,,0.01,Wunderground v.1.15,2013-10-18 17:00:00,
2013-10-18 12:06:00,62.6,52.3,30.01,West,279,4.0,6.0,69,0.00,,,0.01,Wunderground v.1.15,2013-10-18 17:06:00,
2013-10-18 12:11:00,63.0,52.3,30.00,West,281,3.0,3.0,68,0.00,,,0.01,Wunderground v.1.15,2013-10-18 17:11:00,
2013-10-18 12:16:00,63.6,53.6,30.00,West,267,2.0,4.0,70,0.00,,,0.01,Wunderground v.1.15,2013-10-18 17:16:00,
2013-10-18 12:21:00,63.9,53.5,30.00,NW,304,3.0,3.0,69,0.00,,,0.01,Wunderground v.1.15,2013-10-18 17:21:00,
2013-10-18 12:26:00,63.6,52.4,30.00,WSW,256,4.0,7.0,67,0.00,,,0.01,Wunderground v.1.15,2013-10-18 17:26:00,
2013-10-18 12:31:00,63.6,52.0,30.00,West,276,5.0,8.0,66,0.00,,,0.01,Wunderground v.1.15,2013-10-18 17:31:00,
2013-10-18 12:36:00,63.7,51.7,30.00,SSE,166,5.0,8.0,65,0.00,,,0.01,Wunderground v.1.15,2013-10-18 17:36:00,
2013-10-18 12:41:00,64.1,52.1,30.00,SW,214,3.0,6.0,65,0.00,,,0.01,Wunderground v.1.15,2013-10-18 17:41:00,
2013-10-18 12:43:00,64.2,51.8,29.99,WSW,252,4.0,6.0,64,0.00,,,0.01,Wunderground v.1.15,2013-10-18 17:43:00,
2013-10-18 12:49:00,64.3,51.4,29.99,WNW,285,4.0,6.0,63,0.00,,,0.01,Wunderground v.1.15,2013-10-18 17:49:00,
2013-10-18 12:54:00,64.6,52.6,29.99,SSE,163,3.0,4.0,65,0.00,,,0.01,Wunderground v.1.15,2013-10-18 17:54:00,
2013-10-18 12:59:00,64.8,51.9,29.99,West,281,4.0,6.0,63,0.00,,,0.01,Wunderground v.1.15,2013-10-18 17:59:00,
2013-10-18 13:05:00,64.9,52.4,29.98,WNW,283,5.0,8.0,64,0.00,,,0.01,Wunderground v.1.15,2013-10-18 18:05:00,
2013-10-18 13:10:00,65.2,52.7,29.98,WSW,240,5.0,7.0,64,0.00,,,0.01,Wunderground v.1.15,2013-10-18 18:10:00,
2013-10-18 13:15:00,65.5,52.1,29.98,WNW,291,4.0,7.0,62,0.00,,,0.01,Wunderground v.1.15,2013-10-18 18:15:00,
2013-10-18 13:20:00,65.4,52.0,29.97,West,277,4.0,9.0,62,0.00,,,0.01,Wunderground v.1.15,2013-10-18 18:20:00,
2013-10-18 13:25:00,65.3,51.1,29.97,West,280,6.0,9.0,60,0.00,,,0.01,Wunderground v.1.15,2013-10-18 18:25:00,
2013-10-18 13:31:00,65.4,52.5,29.97,WNW,282,6.0,6.0,63,0.00,,,0.01,Wunderground v.1.15,2013-10-18 18:31:00,
2013-10-18 13:36:00,65.7,52.8,29.97,West,280,5.0,9.0,63,0.00,,,0.01,Wunderground v.1.15,2013-10-18 18:36:00,
2013-10-18 13:41:00,65.5,51.2,29.96,West,280,5.0,8.0,60,0.00,,,0.01,Wunderground v.1.15,2013-10-18 18:41:00,
2013-10-18 13:46:00,65.6,51.8,29.96,West,271,5.0,8.0,61,0.00,,,0.01,Wunderground v.1.15,2013-10-18 18:46:00,
2013-10-18 13:51:00,65.9,52.1,29.97,SW,235,5.0,8.0,61,0.00,,,0.01,Wunderground v.1.15,2013-10-18 18:51:00,
2013-10-18 13:56:00,66.2,52.3,29.96,WNW,298,5.0,8.0,61,0.00,,,0.01,Wunderground v.1.15,2013-10-18 18:56:00,
2013-10-18 14:02:00,66.5,50.8,29.96,WSW,240,4.0,7.0,57,0.00,,,0.01,Wunderground v.1.15,2013-10-18 19:02:00,
2013-10-18 14:07:00,66.0,53.0,29.96,WNW,283,5.0,7.0,63,0.00,,,0.01,Wunderground v.1.15,2013-10-18 19:07:00,
2013-10-18 14:13:00,66.1,51.4,29.95,NW,304,6.0,9.0,59,0.00,,,0.01,Wunderground v.1.15,2013-10-18 19:13:00,
2013-10-18 14:18:00,66.2,50.5,29.95,WNW,293,7.0,9.0,57,0.00,,,0.01,Wunderground v.1.15,2013-10-18 19:18:00,
2013-10-18 14:23:00,66.0,51.3,29.95,West,262,7.0,7.0,59,0.00,,,0.01,Wunderground v.1.15,2013-10-18 19:23:00,
2013-10-18 14:28:00,66.3,52.4,29.95,West,281,6.0,8.0,61,0.00,,,0.01,Wunderground v.1.15,2013-10-18 19:28:00,
2013-10-18 14:33:00,66.4,49.7,29.95,West,276,6.0,7.0,55,0.00,,,0.01,Wunderground v.1.15,2013-10-18 19:33:00,
2013-10-18 14:39:00,66.5,51.3,29.95,WNW,290,5.0,9.0,58,0.00,,,0.01,Wunderground v.1.15,2013-10-18 19:39:00,
2013-10-18 14:44:00,66.3,49.6,29.95,West,276,5.0,8.0,55,0.00,,,0.01,Wunderground v.1.15,2013-10-18 19:44:00,
2013-10-18 14:49:00,66.2,50.0,29.95,WNW,291,7.0,11.0,56,0.00,,,0.01,Wunderground v.1.15,2013-10-18 19:49:00,
2013-10-18 14:55:00,66.3,50.1,29.95,West,278,7.0,9.0,56,0.00,,,0.01,Wunderground v.1.15,2013-10-18 19:55:00,
2013-10-18 15:00:00,66.4,50.2,29.95,WNW,293,5.0,6.0,56,0.00,,,0.01,Wunderground v.1.15,2013-10-18 20:00:00,
2013-10-18 15:06:00,66.2,49.6,29.95,WNW,295,6.0,12.0,55,0.00,,,0.01,Wunderground v.1.15,2013-10-18 20:06:00,
2013-10-18 15:11:00,66.3,50.1,29.95,WNW,293,6.0,6.0,56,0.00,,,0.01,Wunderground v.1.15,2013-10-18 20:11:00,
2013-10-18 15:16:00,66.4,49.7,29.94,WNW,288,6.0,8.0,55,0.00,,,0.01,Wunderground v.1.15,2013-10-18 20:16:00,
2013-10-18 15:21:00,66.4,49.7,29.95,NW,311,6.0,6.0,55,0.00,,,0.01,Wunderground v.1.15,2013-10-18 20:21:00,
2013-10-18 15:26:00,66.2,49.1,29.95,WNW,295,6.0,8.0,54,0.00,,,0.01,Wunderground v.1.15,2013-10-18 20:26:00,
2013-10-18 15:31:00,66.2,50.0,29.94,NW,307,6.0,6.0,56,0.00,,,0.01,Wunderground v.1.15,2013-10-18 20:31:00,
2013-10-18 15:37:00,66.2,50.5,29.94,WNW,283,6.0,8.0,57,0.00,,,0.01,Wunderground v.1.15,2013-10-18 20:37:00,
2013-10-18 15:42:00,66.1,49.0,29.94,WNW,293,5.0,5.0,54,0.00,,,0.01,Wunderground v.1.15,2013-10-18 20:42:00,
2013-10-18 15:48:00,66.2,49.1,29.94,West,274,4.0,8.0,54,0.00,,,0.01,Wunderground v.1.15,2013-10-18 20:48:00,
2013-10-18 15:53:00,66.2,50.0,29.94,WSW,250,5.0,6.0,56,0.00,,,0.01,Wunderground v.1.15,2013-10-18 20:53:00,
2013-10-18 15:58:00,66.4,49.2,29.94,WNW,295,5.0,6.0,54,0.00,,,0.01,Wunderground v.1.15,2013-10-18 20:58:00,
2013-10-18 16:04:00,65.9,48.3,29.94,WNW,302,5.0,5.0,53,0.00,,,0.01,Wunderground v.1.15,2013-10-18 21:04:00,
2013-10-18 16:10:00,65.9,47.8,29.94,WSW,253,5.0,5.0,52,0.00,,,0.01,Wunderground v.1.15,2013-10-18 21:10:00,
2013-10-18 16:15:00,65.8,49.7,29.94,West,274,5.0,6.0,56,0.00,,,0.01,Wunderground v.1.15,2013-10-18 21:15:00,
2013-10-18 16:20:00,66.0,48.9,29.94,NW,308,5.0,6.0,54,0.00,,,0.01,Wunderground v.1.15,2013-10-18 21:20:00,
2013-10-18 16:25:00,66.0,48.9,29.94,WNW,289,6.0,9.0,54,0.00,,,0.01,Wunderground v.1.15,2013-10-18 21:25:00,
2013-10-18 16:31:00,65.8,48.7,29.94,WNW,293,7.0,7.0,54,0.00,,,0.01,Wunderground v.1.15,2013-10-18 21:31:00,
2013-10-18 16:36:00,65.7,48.6,29.94,WNW,300,7.0,8.0,54,0.00,,,0.01,Wunderground v.1.15,2013-10-18 21:36:00,
2013-10-18 16:41:00,65.6,48.0,29.94,NW,316,7.0,7.0,53,0.00,,,0.01,Wunderground v.1.15,2013-10-18 21:41:00,
2013-10-18 16:46:00,65.4,47.8,29.94,West,281,7.0,8.0,53,0.00,,,0.01,Wunderground v.1.15,2013-10-18 21:46:00,
2013-10-18 16:51:00,64.9,47.9,29.94,NW,304,6.0,6.0,54,0.00,,,0.01,Wunderground v.1.15,2013-10-18 21:51:00,
2013-10-18 16:56:00,64.0,48.0,29.94,WNW,293,6.0,7.0,56,0.00,,,0.01,Wunderground v.1.15,2013-10-18 21:56:00,
2013-10-18 17:02:00,63.3,48.3,29.94,WNW,289,5.0,6.0,58,0.00,,,0.01,Wunderground v.1.15,2013-10-18 22:02:00,
2013-10-18 17:07:00,62.9,47.9,29.95,WNW,291,5.0,6.0,58,0.00,,,0.01,Wunderground v.1.15,2013-10-18 22:07:00,
2013-10-18 17:12:00,63.2,49.1,29.95,WNW,291,4.0,5.0,60,0.00,,,0.01,Wunderground v.1.15,2013-10-18 22:12:00,
2013-10-18 17:17:00,63.3,49.2,29.95,WNW,297,3.0,5.0,60,0.00,,,0.01,Wunderground v.1.15,2013-10-18 22:17:00,
2013-10-18 17:22:00,63.5,48.9,29.95,WNW,298,3.0,3.0,59,0.00,,,0.01,Wunderground v.1.15,2013-10-18 22:22:00,
2013-10-18 17:27:00,63.3,48.3,29.95,WNW,294,3.0,5.0,58,0.00,,,0.01,Wunderground v.1.15,2013-10-18 22:27:00,
2013-10-18 17:32:00,62.7,49.1,29.95,WNW,288,4.0,4.0,61,0.00,,,0.01,Wunderground v.1.15,2013-10-18 22:32:00,
2013-10-18 17:37:00,62.2,49.0,29.95,WNW,291,3.0,5.0,62,0.00,,,0.01,Wunderground v.1.15,2013-10-18 22:37:00,
2013-10-18 17:42:00,61.6,48.9,29.95,WNW,295,3.0,3.0,63,0.00,,,0.01,Wunderground v.1.15,2013-10-18 22:42:00,
2013-10-18 17:48:00,61.1,49.2,29.96,NW,305,3.0,5.0,65,0.00,,,0.01,Wunderground v.1.15,2013-10-18 22:48:00,
2013-10-18 17:53:00,60.7,48.9,29.96,WNW,297,3.0,3.0,65,0.00,,,0.01,Wunderground v.1.15,2013-10-18 22:53:00,
2013-10-18 17:58:00,60.3,49.3,29.95,WNW,297,2.0,3.0,67,0.00,,,0.01,Wunderground v.1.15,2013-10-18 22:58:00,
2013-10-18 18:03:00,59.7,49.1,29.95,WNW,297,1.0,2.0,68,0.00,,,0.01,Wunderground v.1.15,2013-10-18 23:03:00,
2013-10-18 18:08:00,58.7,48.9,29.96,WNW,298,0.0,2.0,70,0.00,,,0.01,Wunderground v.1.15,2013-10-18 23:08:00,
2013-10-18 18:14:00,57.9,48.9,29.96,WNW,293,0.0,0.0,72,0.00,,,0.01,Wunderground v.1.15,2013-10-18 23:14:00,
2013-10-18 18:19:00,57.2,48.6,29.96,WNW,293,0.0,0.0,73,0.00,,,0.01,Wunderground v.1.15,2013-10-18 23:19:00,
2013-10-18 18:24:00,56.7,48.5,29.96,WNW,294,0.0,1.0,74,0.00,,,0.01,Wunderground v.1.15,2013-10-18 23:24:00,
2013-10-18 18:29:00,56.3,48.5,29.96,West,269,0.0,1.0,75,0.00,,,0.01,Wunderground v.1.15,2013-10-18 23:29:00,
2013-10-18 18:34:00,55.9,48.4,29.96,West,269,0.0,0.0,76,0.00,,,0.01,Wunderground v.1.15,2013-10-18 23:34:00,
2013-10-18 18:39:00,55.7,48.2,29.96,West,269,0.0,0.0,76,0.00,,,0.01,Wunderground v.1.15,2013-10-18 23:39:00,
2013-10-18 18:44:00,55.6,48.5,29.97,West,271,0.0,0.0,77,0.00,,,0.01,Wunderground v.1.15,2013-10-18 23:44:00,
2013-10-18 18:50:00,55.3,48.2,29.97,West,270,0.0,0.0,77,0.00,,,0.01,Wunderground v.1.15,2013-10-18 23:50:00,
2013-10-18 18:55:00,55.2,48.5,29.97,West,270,0.0,0.0,78,0.00,,,0.01,Wunderground v.1.15,2013-10-18 23:55:00,
2013-10-18 19:00:00,55.0,48.6,29.97,West,277,0.0,0.0,79,0.00,,,0.01,Wunderground v.1.15,2013-10-19 00:00:00,
2013-10-18 19:06:00,54.7,48.3,29.97,West,280,0.0,0.0,79,0.00,,,0.01,Wunderground v.1.15,2013-10-19 00:06:00,
2013-10-18 19:11:00,54.3,48.3,29.98,West,278,0.0,1.0,80,0.00,,,0.01,Wunderground v.1.15,2013-10-19 00:11:00,
2013-10-18 19:16:00,53.9,48.2,29.98,West,280,0.0,1.0,81,0.00,,,0.01,Wunderground v.1.15,2013-10-19 00:16:00,
2013-10-18 19:22:00,53.4,47.7,29.98,West,276,1.0,1.0,81,0.00,,,0.01,Wunderground v.1.15,2013-10-19 00:22:00,
2013-10-18 19:27:00,53.3,47.9,29.98,WNW,283,0.0,1.0,82,0.00,,,0.01,Wunderground v.1.15,2013-10-19 00:27:00,
2013-10-18 19:32:00,53.2,47.8,29.98,WNW,288,0.0,1.0,82,0.00,,,0.01,Wunderground v.1.15,2013-10-19 00:32:00,
2013-10-18 19:38:00,53.3,47.9,29.98,NW,316,1.0,1.0,82,0.00,,,0.01,Wunderground v.1.15,2013-10-19 00:38:00,
2013-10-18 19:43:00,53.4,48.0,29.99,NW,322,0.0,1.0,82,0.00,,,0.01,Wunderground v.1.15,2013-10-19 00:43:00,
2013-10-18 19:49:00,53.7,48.0,29.99,NW,319,0.0,1.0,81,0.00,,,0.01,Wunderground v.1.15,2013-10-19 00:49:00,
2013-10-18 19:55:00,53.9,48.2,29.99,NW,314,1.0,3.0,81,0.00,,,0.01,Wunderground v.1.15,2013-10-19 00:55:00,
2013-10-18 20:00:00,53.9,48.2,29.99,NW,321,2.0,2.0,81,0.00,,,0.01,Wunderground v.1.15,2013-10-19 01:00:00,
2013-10-18 20:06:00,53.8,47.8,29.99,NNW,340,2.0,3.0,80,0.00,,,0.01,Wunderground v.1.15,2013-10-19 01:06:00,
2013-10-18 20:12:00,53.8,47.8,29.99,North,360,2.0,2.0,80,0.00,,,0.01,Wunderground v.1.15,2013-10-19 01:12:00,
2013-10-18 20:17:00,53.7,47.3,29.99,North,353,1.0,3.0,79,0.00,,,0.01,Wunderground v.1.15,2013-10-19 01:17:00,
2013-10-18 20:22:00,53.5,47.5,29.99,NNW,342,1.0,2.0,80,0.00,,,0.01,Wunderground v.1.15,2013-10-19 01:22:00,
2013-10-18 20:27:00,53.2,47.2,29.98,North,8,1.0,2.0,80,0.00,,,0.01,Wunderground v.1.15,2013-10-19 01:27:00,
2013-10-18 20:32:00,53.0,47.0,29.99,North,356,0.0,1.0,80,0.00,,,0.01,Wunderground v.1.15,2013-10-19 01:32:00,
2013-10-18 20:37:00,52.7,47.0,29.99,North,356,0.0,1.0,81,0.00,,,0.01,Wunderground v.1.15,2013-10-19 01:37:00,
2013-10-18 20:42:00,52.5,46.8,29.99,North,359,0.0,0.0,81,0.00,,,0.01,Wunderground v.1.15,2013-10-19 01:42:00,
2013-10-18 20:48:00,52.3,46.6,29.99,North,1,0.0,1.0,81,0.00,,,0.01,Wunderground v.1.15,2013-10-19 01:48:00,
2013-10-18 20:53:00,52.1,46.4,29.99,North,6,0.0,0.0,81,0.00,,,0.01,Wunderground v.1.15,2013-10-19 01:53:00,
2013-10-18 20:58:00,51.9,46.3,29.99,North,5,0.0,0.0,81,0.00,,,0.01,Wunderground v.1.15,2013-10-19 01:58:00,
2013-10-18 21:04:00,51.7,46.1,29.99,North,4,0.0,0.0,81,0.00,,,0.01,Wunderground v.1.15,2013-10-19 02:04:00,
2013-10-18 21:09:00,51.5,46.2,29.99,North,1,1.0,2.0,82,0.00,,,0.01,Wunderground v.1.15,2013-10-19 02:09:00,
2013-10-18 21:14:00,51.4,45.8,29.99,North,353,1.0,1.0,81,0.00,,,0.01,Wunderground v.1.15,2013-10-19 02:14:00,
2013-10-18 21:19:00,51.0,45.7,29.99,North,352,0.0,2.0,82,0.00,,,0.01,Wunderground v.1.15,2013-10-19 02:19:00,
2013-10-18 21:24:00,50.7,45.4,29.99,North,5,0.0,1.0,82,0.00,,,0.01,Wunderground v.1.15,2013-10-19 02:24:00,
2013-10-18 21:30:00,50.8,45.5,29.99,NNE,12,0.0,0.0,82,0.00,,,0.01,Wunderground v.1.15,2013-10-19 02:30:00,
2013-10-18 21:35:00,50.6,45.0,29.99,NNE,12,0.0,0.0,81,0.00,,,0.01,Wunderground v.1.15,2013-10-19 02:35:00,
2013-10-18 21:40:00,50.4,45.1,29.99,NE,49,0.0,0.0,82,0.00,,,0.01,Wunderground v.1.15,2013-10-19 02:40:00,
2013-10-18 21:45:00,50.4,45.1,29.99,ENE,57,0.0,1.0,82,0.00,,,0.01,Wunderground v.1.15,2013-10-19 02:45:00,
2013-10-18 21:50:00,50.4,45.1,29.99,ENE,57,0.0,0.0,82,0.00,,,0.01,Wunderground v.1.15,2013-10-19 02:50:00,
2013-10-18 21:56:00,50.0,44.7,29.98,NE,56,0.0,1.0,82,0.00,,,0.01,Wunderground v.1.15,2013-10-19 02:56:00,
2013-10-18 22:02:00,49.7,44.7,29.98,NE,55,0.0,1.0,83,0.00,,,0.01,Wunderground v.1.15,2013-10-19 03:02:00,
2013-10-18 22:07:00,49.4,44.8,29.98,NE,55,0.0,1.0,84,0.00,,,0.01,Wunderground v.1.15,2013-10-19 03:07:00,
2013-10-18 22:12:00,49.3,45.0,29.98,NE,55,0.0,0.0,85,0.00,,,0.01,Wunderground v.1.15,2013-10-19 03:12:00,
2013-10-18 22:17:00,49.2,44.9,29.98,NE,55,0.0,0.0,85,0.00,,,0.01,Wunderground v.1.15,2013-10-19 03:17:00,
2013-10-18 22:22:00,49.1,45.1,29.98,NE,37,0.0,0.0,86,0.00,,,0.01,Wunderground v.1.15,2013-10-19 03:22:00,
2013-10-18 22:27:00,49.4,45.1,29.98,North,1,0.0,0.0,85,0.00,,,0.01,Wunderground v.1.15,2013-10-19 03:27:00,
2013-10-18 22:32:00,49.5,45.2,29.98,North,360,0.0,0.0,85,0.00,,,0.01,Wunderground v.1.15,2013-10-19 03:32:00,
2013-10-18 22:38:00,49.6,45.3,29.98,North,360,0.0,0.0,85,0.00,,,0.01,Wunderground v.1.15,2013-10-19 03:38:00,
2013-10-18 22:44:00,49.8,45.5,29.98,North,350,0.0,1.0,85,0.00,,,0.01,Wunderground v.1.15,2013-10-19 03:44:00,
2013-10-18 22:49:00,50.1,45.5,29.98,NNE,25,0.0,1.0,84,0.00,,,0.01,Wunderground v.1.15,2013-10-19 03:49:00,
2013-10-18 22:54:00,50.2,45.6,29.98,NNE,23,0.0,0.0,84,0.00,,,0.01,Wunderground v.1.15,2013-10-19 03:54:00,
2013-10-18 22:59:00,50.3,45.6,29.98,NNE,23,0.0,0.0,84,0.00,,,0.01,Wunderground v.1.15,2013-10-19 03:59:00,
2013-10-18 23:01:00,50.3,45.6,29.97,NNE,24,0.0,0.0,84,0.00,,,0.01,Wunderground v.1.15,2013-10-19 04:01:00,
2013-10-18 23:02:00,50.3,45.6,29.97,NNE,24,0.0,0.0,84,0.00,,,0.01,Wunderground v.1.15,2013-10-19 04:02:00,
2013-10-18 23:03:00,50.3,45.6,29.97,NNE,25,0.0,0.0,84,0.00,,,0.01,Wunderground v.1.15,2013-10-19 04:03:00,
2013-10-18 23:04:00,50.2,45.6,29.97,NNE,25,0.0,0.0,84,0.00,,,0.01,Wunderground v.1.15,2013-10-19 04:04:00,
2013-10-18 23:05:00,50.2,45.6,29.97,NNE,24,0.0,0.0,84,0.00,,,0.01,Wunderground v.1.15,2013-10-19 04:05:00,
2013-10-18 23:10:00,50.2,45.6,29.98,NNE,24,0.0,0.0,84,0.00,,,0.01,Wunderground v.1.15,2013-10-19 04:10:00,
2013-10-18 23:11:00,50.2,45.9,29.97,NNE,24,0.0,0.0,85,0.00,,,0.01,Wunderground v.1.15,2013-10-19 04:11:00,
2013-10-18 23:16:00,50.1,45.8,29.98,NNE,24,0.0,0.0,85,0.00,,,0.01,Wunderground v.1.15,2013-10-19 04:16:00,
2013-10-18 23:21:00,50.1,45.8,29.98,NNE,24,0.0,0.0,85,0.00,,,0.01,Wunderground v.1.15,2013-10-19 04:21:00,
2013-10-18 23:26:00,50.3,46.9,29.98,NW,304,0.0,0.0,88,0.00,,,0.01,Wunderground v.1.15,2013-10-19 04:26:00,
2013-10-18 23:31:00,50.3,46.9,29.98,NW,304,0.0,0.0,88,0.00,,,0.01,Wunderground v.1.15,2013-10-19 04:31:00,
2013-10-18 23:37:00,50.3,47.2,29.98,NW,305,0.0,0.0,89,0.00,,,0.01,Wunderground v.1.15,2013-10-19 04:37:00,
2013-10-18 23:42:00,50.3,47.2,29.97,NW,305,0.0,0.0,89,0.00,,,0.01,Wunderground v.1.15,2013-10-19 04:42:00,
2013-10-18 23:47:00,50.2,47.1,29.97,NW,305,0.0,0.0,89,0.00,,,0.01,Wunderground v.1.15,2013-10-19 04:47:00,
2013-10-18 23:52:00,50.1,47.0,29.97,NW,305,0.0,0.0,89,0.00,,,0.01,Wunderground v.1.15,2013-10-19 04:52:00,
2013-10-18 23:57:00,50.0,46.9,29.96,NW,305,0.0,0.0,89,0.00,,,0.01,Wunderground v.1.15,2013-10-19 04:57:00,